Location: Metacom Observatory
(41.7315°N, 71.2698°W)
Time: 03:13:44
(UTC-05:00)

OTV 5 (USA 277) - Visible Passes

Search period start: 22 January 2018 00:00
Search period end: 01 February 2018 00:00
Orbit: 404 x 417 km, 43.0° (Epoch: 07 September)

Date Brightness Start Highest point End Pass type
(mag) Time Alt. Az. Time Alt. Az. Time Alt. Az.
22 Jan ? 18:42:49 10° SW 18:44:58 27° S 18:44:58 27° S visible
23 Jan ? 17:52:12 10° SSW 17:54:56 23° SSE 17:56:29 17° ESE visible
23 Jan ? 19:28:36 10° WSW 19:29:15 15° WSW 19:29:15 15° WSW visible
24 Jan ? 18:37:35 10° WSW 18:40:43 62° S 18:40:43 62° S visible
25 Jan ? 17:46:39 10° SW 17:49:53 47° SSE 17:52:08 18° E visible
25 Jan ? 19:23:49 10° W 19:24:54 19° W 19:24:54 19° W visible
26 Jan ? 18:32:42 10° W 18:36:05 81° N 18:36:18 75° NE visible
27 Jan ? 17:41:38 10° WSW 17:45:00 83° SSE 17:47:40 15° ENE visible
27 Jan ? 19:19:03 10° W 19:20:26 22° WNW 19:20:26 22° WNW visible
28 Jan ? 18:27:57 10° W 18:31:19 68° N 18:31:49 56° NE visible
29 Jan ? 17:36:50 10° W 17:40:12 72° N 17:43:12 13° E visible
29 Jan ? 19:14:15 10° WNW 19:15:58 27° WNW 19:15:58 27° WNW visible
30 Jan ? 18:23:10 10° W 18:26:33 75° N 18:27:23 47° E visible
31 Jan ? 17:32:04 10° W 17:35:27 69° N 17:38:49 10° E visible
31 Jan ? 19:09:27 10° W 19:11:38 35° W 19:11:38 35° W visible
